星链-11166 [DTC] (STARLINK-11166 [DTC] )

导读 | 豆包AI

STARLINK-11166是美国太空探索技术公司(SpaceX)星链(Starlink)星座中的一颗卫星,于2024年6月19日发射升空。星链项目旨在构建全球卫星互联网星座,为全球偏远地区、海洋等网络覆盖薄弱区域提供高速互联网接入服务,该卫星入轨后将进一步扩充星链星座规模,提升星座服务能力与覆盖范围。

Basic Information
目录编号:
60062
目录名称:
STARLINK-11166
国际标识:
2024-113D
轨道中心:
EARTH
卫星名称:
星链-11166 [DTC]
卫星全名:
星链-11166 [DTC] (STARLINK-11166 [DTC] )
卫星状态:
在轨 (已飞行705 天)
发射日期:
2024-06-19 UTC
国别 :
美国 (US)
星等 :
--
Orbit Information
数据来源 国际轨道数据 AOE轨道数据
星历时间 2026-05-23T20:19:12+0800
1天前
查看轨道信息
2026-05-21T07:00:00+0800
4天前
查看轨道信息
半长轴 6737.901km 6737.826km
偏心率 0.0001091 0.0001967
轨道倾角 53.158° 53.159°
近地点辐角 79.315° 28.610°
升交点赤经 182.317° 194.917°
平近点角 280.799° 285.049°
近地点 359.028km 358.363km
远地点 360.5km 361.015km
周期 91.737分钟 91.736分钟
每日圈数 15.69697 15.697235
Detailed Information
固有亮度:
5
最大亮度:
0.3
卫星平台:
Starlink v2.0 mini
覆盖范围:
全球
运营商:
太空探索技术公司
运营商所在国:
美国
制造商(研发单位):
太空探索技术公司
制造商所在国:
美国
使用方式:
暂无
Satellite Introduction
星链(Starlink)计划是由太空探索技术公司(SpaceX)提出的一个巨型低轨卫星互联网星座项目,计划在2019年至2024年间在太空搭建由约1.2万颗卫星组成的“星链”网络,其中1584颗将部署在地球上空550千米处的近地轨道,并从2020年开始工作。该卫星仍在工作。
2D Orbit Map
3D Orbit Map
Orbit Altitude Analysis Chart
Orbit Inclination Analysis Chart
Orbit Comprehensive Analysis Chart
View Comprehensive Chart